Location: Terra Rouge Observatory
(46.0000°N, 62.7500°W)
Time: 05:57:28
(UTC-03:00)

Daily predictions for brighter satellites

Satellite Brightness Start Highest point End
(mag) Time Altitude Azimuth Time Altitude Azimuth Time Altitude Azimuth
ADEOS II 4.3 03:41:16 10° NE 03:44:37 21° E 03:44:37 21° E
Cosmos 1943 Rocket 4.1 03:48:10 25° ENE 03:48:10 25° ENE 03:50:59 10° NE
USA 215 3.5 04:20:25 10° NE 04:26:14 58° N 04:26:14 58° N
CZ-4C R/B 2.8 04:29:15 79° SSE 04:29:15 79° SSE 04:36:42 10° SE
Cosmos 2369 Rocket 3.2 04:32:36 39° N 04:32:36 39° N 04:36:07 10° NNE
USA 229 DEB 3.9 04:42:58 56° S 04:44:11 66° ESE 04:51:03 10° NE
USA 229 3.9 04:43:02 55° S 04:44:16 65° ESE 04:51:08 10° NE
Okean O Rocket 3.1 04:46:04 10° NNE 04:50:06 34° E 04:51:49 25° SE
Resurs 1-4 Rocket 4.4 04:46:33 10° N 04:47:17 13° NNW 04:47:17 13° NNW
Lacrosse 5 3.2 04:52:06 31° N 04:52:06 31° N 04:55:43 10° NE
CENTAUR R/B 4.2 04:50:45 22° NNW 04:51:53 23° NNW 04:57:35 10° NE
Cosmos 489 Rocket 4.3 04:53:28 82° WNW 04:53:31 82° WNW 04:59:49 10° NNE
Cosmos 2154 Rocket 4.1 04:50:56 10° N 04:57:19 75° E 05:03:36 10° SSE
Cosmos 2219 4.1 04:51:58 10° NNW 04:57:29 47° ENE 05:02:55 10° SE
USA 267 3.6 04:52:57 10° SSE 04:58:02 45° SSW 04:58:02 45° SSW
MOS 1-B 4.3 04:53:45 10° NNE 04:59:34 80° ESE 05:01:09 50° S
Cosmos 1340 Rocket 4.3 05:02:02 33° NNE 05:02:02 33° NNE 05:04:23 10° NNE
Cosmos 1758 Rocket 4.4 04:59:49 43° SE 05:00:44 51° E 05:05:07 10° NNE
Meteor 2-19 Rocket 4.3 04:55:42 10° N 05:01:53 81° W 05:08:03 10° S
Cosmos 1707 3.7 05:05:14 47° E 05:05:14 47° E 05:08:47 10° NNE
Cosmos 2297 Rocket 4.4 05:03:11 10° N 05:07:34 22° NE 05:11:55 10° E
Cosmos 1378 4.1 05:08:50 46° ENE 05:08:50 46° ENE 05:12:05 10° NNE
Cosmos 1656 Rocket 3.8 05:08:28 42° S 05:10:26 72° ESE 05:16:06 10° NNE
CZ-4B R/B 4.3 05:10:44 10° NNE 05:12:32 28° NNE 05:12:32 28° NNE
CZ-2D R/B 4.4 05:13:02 10° NNW 05:13:24 11° NNW 05:13:24 11° NNW
Cosmos 1610 Rocket 4.3 05:11:45 10° NNW 05:17:50 63° W 05:23:52 10° S
Meteor 1-16 Rocket 4.5 05:18:02 10° N 05:23:42 70° ENE 05:29:29 10° SSE
ADEOS II 2.1 05:20:07 10° N 05:25:17 57° WNW 05:25:34 56° W
Cosmos 1943 Rocket 2.6 05:29:43 40° NW 05:29:43 40° NW 05:34:55 10° NNE
CZ-4B R/B 3.3 05:27:29 10° NNE 05:32:56 75° ESE 05:38:29 10° S
Cosmos 1898 Rocket 4.2 05:34:20 35° NW 05:34:20 35° NW 05:38:37 10° N
Cosmos 962 Rocket 4.3 05:27:46 10° N 05:33:58 82° W 05:40:04 10° S
Cosmos 1937 Rocket 3.7 05:33:45 47° WNW 05:34:07 48° WNW 05:39:17 10° NNE
Cosmos 2150 Rocket 4.1 05:33:41 50° W 05:34:24 54° WNW 05:39:39 10° NNE
Landsat 4 3.8 05:37:38 10° SSE 05:41:23 74° ENE 05:45:10 10° N
IRS-1C Rocket 4.1 05:39:10 10° NNE 05:44:29 83° ESE 05:49:45 10° SSW
Cosmos 1125 Rocket 4.0 05:39:22 10° S 05:44:32 62° ESE 05:49:46 10° NNE
Milstar 3 4.4 05:45:28 14° SSW 05:48:00 16° S 05:52:23 10° SSE
Cosmos 2341 Rocket 4.0 05:42:40 10° NNW 05:49:01 66° W 05:55:20 10° S
CZ-4B R/B 4.3 05:45:15 10° NNE 05:49:43 75° ESE 05:54:13 10° S
Cosmos 1809 Rocket 4.3 05:44:03 10° NNW 05:50:09 74° W 05:56:16 10° S
Meteor PRIRODA 3.5 05:47:43 10° NNE 05:51:30 86° WNW 05:55:15 10° SSW
ERBS 2.2 05:51:24 63° WNW 05:51:50 76° SW 05:55:17 10° SE
Cosmos 1953 Rocket 3.6 05:50:51 38° WSW 05:52:00 49° WNW 05:56:13 10° N
SJ 16-02 1.9 05:48:16 10° S 05:52:36 59° ESE 05:56:56 10° NNE
Cosmos 1825 Rocket 4.2 05:52:55 36° WNW 05:52:55 36° WNW 05:56:45 10° N
Meteor 1-28 Rocket 3.5 05:49:28 10° SSE 05:53:14 70° ENE 05:57:04 10° N
Cosmos 2181 Rocket 3.9 05:47:39 10° S 05:53:54 83° W 06:00:07 10° N
PSLV R/B 4.0 05:50:01 10° N 05:54:00 39° WNW 05:54:18 38° W
Cosmos 1356 Rocket 3.3 05:52:49 10° SSW 05:57:05 73° W 06:01:25 10° N
MTI 3.7 06:00:13 10° SSE 06:03:28 86° ENE 06:06:44 10° NNW
Cosmos 1959 Rocket 4.5 05:59:34 10° N 06:05:56 88° W 06:12:11 10° S
SKYMED 2 4.0 06:03:50 10° SSE 06:08:06 63° ENE 06:12:25 10° N
MINOTAUR R/B 4.0 06:07:43 34° NNW 06:08:42 86° WSW 06:11:21 10° SSE
USA 215 4.2 06:03:21 10° NE 06:09:10 36° N 06:13:34 17° WNW
Cosmos 1048 Rocket 4.0 06:06:43 10° NNW 06:11:49 60° WSW 06:16:58 10° S
Meteor 2-21 Rocket 4.4 06:07:19 10° NNW 06:13:18 64° W 06:19:18 10° S
Meteor 1-24 Rocket 3.8 06:08:18 10° S 06:14:20 89° WNW 06:20:16 10° N
Cosmos 2227 Rocket 2.5 06:08:46 10° NNW 06:14:28 70° ENE 06:20:07 10° SE
Cosmos 2369 Rocket 3.8 06:14:24 15° NW 06:15:34 16° NW 06:18:53 10° N
USA 116 3.7 06:12:04 10° S 06:15:37 55° W 06:19:41 10° NNW
CZ-4C R/B 4.0 06:14:33 20° W 06:16:44 22° WSW 06:22:28 10° SSW
Cosmos 158 Rocket 4.5 06:18:39 10° NW 06:23:40 40° WSW 06:28:39 10° S
SWAS 4.4 06:19:35 10° NNW 06:23:54 68° WSW 06:28:11 10° SSE
Cosmos 1674 3.7 06:22:10 10° S 06:25:46 48° E 06:29:23 10° NNE
Okean O Rocket 2.6 06:22:40 10° N 06:26:21 26° WNW 06:29:16 14° WSW
Meteor 1-31 Rocket 3.3 06:27:05 10° N 06:30:35 35° WNW 06:34:03 10° SW
Feng Yun 1-1 Rocket 4.3 06:25:38 10° NNE 06:31:15 87° WNW 06:37:00 10° SSW
Cosmos-2242 4.0 06:29:37 10° NW 06:33:05 24° W 06:36:33 10° SW
NOSS 3-1 (C) 3.6 06:27:28 10° WSW 06:33:08 56° NW 06:39:42 10° NE
Lacrosse 5 3.5 06:31:18 10° NW 06:35:17 23° N 06:39:21 10° NE
USA 229 DEB 4.4 06:30:27 15° W 06:35:36 37° NW 06:42:02 10° NNE
USA 229 4.4 06:30:31 15° W 06:35:40 37° NW 06:42:07 10° NNE
NOSS 3-1 (A) 3.5 06:33:19 10° SW 06:39:08 67° NW 06:45:48 10° NE
Cosmos 2366 rocket 4.0 06:34:03 10° NNW 06:40:02 55° W 06:46:01 10° SSW
Cosmos 1726 3.4 06:36:31 10° N 06:40:03 43° ENE 06:43:33 10° SSE
Cosmos 1707 4.4 06:40:32 14° W 06:41:12 15° WNW 06:43:27 10° NNW
Cosmos 2219 4.0 06:36:35 10° NW 06:41:23 29° WSW 06:46:10 10° SSW
Okean-O 2.6 06:37:27 10° N 06:41:52 68° WNW 06:46:16 10° SSW
USA 81 4.5 06:38:26 10° SSW 06:43:21 39° WNW 06:48:18 10° N
BREEZE-M DEB (TANK) 4.0 06:42:45 12° W 06:46:47 80° NNW 07:04:05 10° ENE
Cosmos 2297 Rocket 2.2 06:46:34 10° NNW 06:52:13 74° WSW 06:57:50 10° SSE
KORONAS-FOTON 3.9 06:51:56 10° S 06:55:42 79° E 06:59:30 10° NNE
COSMO-SKYMED 1 3.0 06:52:09 10° S 06:56:14 41° W 07:00:22 10° NNW
Cosmos 1908 3.3 06:52:56 10° NNW 06:56:42 53° W 07:00:25 10° S
ATLAS 3B R/B 3.6 06:52:31 10° NNW 06:59:02 47° NE 07:05:17 10° ESE
Meteor 1-21 Rocket 4.5 06:53:32 10° S 06:59:19 80° E 07:05:02 10° NNE
Cosmos 1656 4.1 06:53:57 10° SSW 06:59:36 71° ESE 07:05:18 10° NNE
Cosmos 2082 3.7 06:54:26 10° NNW 07:00:04 67° WSW 07:05:38 10° SSE
EO 1 Del DPAF 4.4 07:00:06 10° SSW 07:03:12 23° W 07:06:19 10° NW
Cosmos 1697 Rocket 3.7 06:59:35 10° S 07:05:04 53° ESE 07:10:35 10° NE
Cosmos 2221 2.6 07:01:00 10° NNW 07:05:20 59° W 07:09:38 10° S
